�������l�o���
Date,Time,MP-1(��Sv/h),MP-2(��Sv/h),MP-3(��Sv/h),MP-4(��Sv/h),MP-5(��Sv/h),MP-6(��Sv/h),MP-7(��Sv/h),MP-8(��Sv/h),����,����(m/s),���J
2020/02/19,00:00,0.685,0.980,0.649,1.206,0.856,0.399,0.693,0.659,��,3.6,��
2020/02/19,00:10,0.686,0.982,0.648,1.206,0.857,0.398,0.692,0.660,��,3.9,��
2020/02/19,00:20,0.686,0.980,0.648,1.209,0.857,0.398,0.692,0.659,��,3.8,��
2020/02/19,00:30,0.687,0.980,0.647,1.208,0.858,0.399,0.694,0.659,��,3.4,��
2020/02/19,00:40,0.686,0.980,0.649,1.206,0.857,0.397,0.693,0.659,��,3.2,��
2020/02/19,00:50,0.686,0.980,0.647,1.205,0.858,0.399,0.692,0.659,���쐼,2.9,��
2020/02/19,01:00,0.686,0.979,0.646,1.206,0.857,0.397,0.692,0.658,�쐼,2.3,��
2020/02/19,01:10,0.685,0.981,0.648,1.209,0.857,0.400,0.695,0.658,�쐼,2.5,��
2020/02/19,01:20,0.685,0.983,0.646,1.207,0.860,0.399,0.693,0.661,�쐼,3.0,��
2020/02/19,01:30,0.686,0.980,0.649,1.209,0.858,0.397,0.691,0.659,��쐼,2.3,��
2020/02/19,01:40,0.686,0.981,0.647,1.205,0.856,0.399,0.694,0.659,��쐼,0.9,��
2020/02/19,01:50,0.685,0.981,0.648,1.204,0.857,0.398,0.693,0.659,�쐼,0.6,��
2020/02/19,02:00,0.687,0.979,0.649,1.207,0.858,0.398,0.693,0.658,�쐼,1.5,��
2020/02/19,02:10,0.687,0.980,0.648,1.206,0.857,0.398,0.691,0.658,�쐼,1.7,��
2020/02/19,02:20,0.686,0.981,0.649,1.208,0.858,0.397,0.692,0.660,�쐼,2.0,��
2020/02/19,02:30,0.686,0.980,0.647,1.209,0.856,0.397,0.694,0.658,���쐼,2.9,��
2020/02/19,02:40,0.685,0.982,0.646,1.209,0.857,0.398,0.692,0.660,���쐼,3.5,��
2020/02/19,02:50,0.687,0.983,0.646,1.207,0.858,0.398,0.693,0.659,���쐼,3.4,��
2020/02/19,03:00,0.687,0.983,0.647,1.207,0.860,0.398,0.692,0.659,���쐼,3.3,��
2020/02/19,03:10,0.687,0.979,0.647,1.205,0.855,0.397,0.693,0.659,���k��,4.2,��
2020/02/19,03:20,0.687,0.980,0.647,1.207,0.855,0.396,0.694,0.657,��,3.5,��
2020/02/19,03:30,0.685,0.981,0.648,1.208,0.857,0.396,0.692,0.659,���쐼,4.5,��
2020/02/19,03:40,0.685,0.979,0.647,1.209,0.856,0.397,0.691,0.659,��,6.1,��
2020/02/19,03:50,0.686,0.981,0.647,1.208,0.857,0.398,0.694,0.659,���k��,4.0,��
2020/02/19,04:00,0.685,0.978,0.646,1.204,0.858,0.397,0.692,0.659,���k��,5.0,��
2020/02/19,04:10,0.686,0.980,0.647,1.209,0.856,0.398,0.694,0.659,���k��,5.4,��
2020/02/19,04:20,0.687,0.980,0.648,1.207,0.856,0.398,0.695,0.660,��,4.9,��
2020/02/19,04:30,0.685,0.980,0.646,1.207,0.858,0.398,0.692,0.659,���k��,4.6,��
2020/02/19,04:40,0.684,0.980,0.647,1.209,0.859,0.397,0.692,0.658,���k��,3.8,��
2020/02/19,04:50,0.686,0.979,0.645,1.207,0.857,0.399,0.692,0.659,��,2.6,��
2020/02/19,05:00,0.684,0.978,0.647,1.206,0.856,0.399,0.692,0.658,���k��,2.3,��
2020/02/19,05:10,0.687,0.979,0.646,1.207,0.855,0.397,0.691,0.658,�k�k��,1.7,��
2020/02/19,05:20,0.685,0.979,0.648,1.205,0.858,0.399,0.692,0.659,�k��,1.9,��
2020/02/19,05:30,0.686,0.979,0.648,1.207,0.859,0.397,0.692,0.659,�k��,1.7,��
2020/02/19,05:40,0.683,0.980,0.646,1.206,0.856,0.396,0.692,0.660,��,1.5,��
2020/02/19,05:50,0.685,0.977,0.646,1.206,0.857,0.397,0.692,0.658,��,1.7,��
2020/02/19,06:00,0.684,0.979,0.645,1.206,0.857,0.397,0.693,0.657,���쐼,1.4,��
2020/02/19,06:10,0.685,0.980,0.645,1.205,0.856,0.399,0.691,0.659,��,1.1,��
2020/02/19,06:20,0.684,0.979,0.644,1.206,0.857,0.397,0.692,0.658,��쐼,0.8,��
2020/02/19,06:30,0.682,0.979,0.648,1.208,0.858,0.397,0.691,0.657,��,1.5,��
2020/02/19,06:40,0.683,0.977,0.645,1.205,0.856,0.395,0.692,0.659,���쐼,1.7,��
2020/02/19,06:50,0.683,0.977,0.646,1.205,0.854,0.397,0.692,0.659,���쐼,1.2,��
2020/02/19,07:00,0.686,0.981,0.645,1.206,0.858,0.396,0.692,0.656,�쐼,1.2,��
2020/02/19,07:10,0.683,0.979,0.646,1.205,0.855,0.396,0.692,0.659,�쐼,2.2,��
2020/02/19,07:20,0.684,0.978,0.643,1.205,0.856,0.395,0.693,0.659,���쐼,2.6,��
2020/02/19,07:30,0.684,0.978,0.644,1.204,0.857,0.396,0.691,0.657,�쐼,3.5,��
2020/02/19,07:40,0.683,0.978,0.645,1.206,0.855,0.396,0.691,0.659,���쐼,3.4,��
2020/02/19,07:50,0.685,0.977,0.644,1.206,0.855,0.397,0.693,0.660,��,3.6,��
2020/02/19,08:00,0.686,0.979,0.645,1.207,0.856,0.397,0.694,0.658,��,2.9,��
2020/02/19,08:10,0.685,0.980,0.646,1.206,0.860,0.397,0.692,0.660,���k��,3.0,��
2020/02/19,08:20,0.684,0.983,0.647,1.208,0.858,0.395,0.694,0.659,���k��,2.8,��
2020/02/19,08:30,0.684,0.980,0.645,1.205,0.858,0.396,0.693,0.660,�k��,1.5,��
2020/02/19,08:40,0.688,0.978,0.645,1.208,0.857,0.397,0.693,0.660,�k��,2.2,��
2020/02/19,08:50,0.686,0.978,0.644,1.209,0.858,0.396,0.693,0.659,�k�k��,1.4,��
2020/02/19,09:00,0.685,0.981,0.640,1.205,0.859,0.396,0.693,0.659,�k��,1.7,��
2020/02/19,09:10,0.687,0.977,0.643,1.204,0.857,0.395,0.695,0.660,�k��,1.9,��
2020/02/19,09:20,0.686,0.976,0.646,1.204,0.860,0.396,0.692,0.660,��,3.1,��
2020/02/19,09:30,0.687,0.975,0.646,1.203,0.858,0.397,0.693,0.658,���k��,3.6,��
2020/02/19,09:40,0.687,0.975,0.646,1.203,0.857,0.398,0.693,0.661,�쐼,2.0,��
2020/02/19,09:50,0.686,0.976,0.647,1.206,0.857,0.399,0.692,0.658,��,1.5,��
2020/02/19,10:00,0.686,0.976,0.648,1.208,0.858,0.397,0.692,0.659,��,3.5,��
2020/02/19,10:10,0.685,0.978,0.645,1.208,0.858,0.397,0.691,0.658,���k��,3.6,��
2020/02/19,10:20,0.688,0.974,0.646,1.211,0.860,0.396,0.692,0.660,���k��,2.8,��
2020/02/19,10:30,0.688,0.975,0.649,1.209,0.857,0.398,0.690,0.659,���k��,3.5,��
2020/02/19,10:40,0.689,0.976,0.647,1.210,0.859,0.397,0.692,0.659,���k��,4.7,��
2020/02/19,10:50,0.688,0.976,0.648,1.205,0.862,0.397,0.691,0.661,���k��,4.7,��
2020/02/19,11:00,0.690,0.976,0.648,1.210,0.859,0.396,0.692,0.659,���k��,4.8,��
2020/02/19,11:10,0.690,0.981,0.647,1.209,0.860,0.396,0.692,0.660,���k��,5.8,��
2020/02/19,11:20,0.687,0.977,0.645,1.209,0.862,0.396,0.692,0.660,���k��,5.9,��
2020/02/19,11:30,0.688,0.975,0.648,1.210,0.860,0.396,0.692,0.658,���k��,5.3,��
2020/02/19,11:40,0.687,0.981,0.650,1.209,0.860,0.397,0.692,0.660,���k��,5.2,��
2020/02/19,11:50,0.689,0.979,0.649,1.209,0.860,0.398,0.692,0.659,�k��,4.9,��
2020/02/19,12:00,0.689,0.978,0.650,1.210,0.861,0.398,0.690,0.660,���k��,4.1,��
2020/02/19,12:10,0.689,0.981,0.648,1.208,0.862,0.398,0.691,0.660,���k��,4.3,��
2020/02/19,12:20,0.689,0.981,0.650,1.209,0.862,0.397,0.692,0.660,�k��,4.5,��
2020/02/19,12:30,0.689,0.983,0.648,1.209,0.864,0.397,0.691,0.659,�k��,3.3,��
2020/02/19,12:40,0.690,0.984,0.647,1.211,0.862,0.399,0.691,0.659,���k��,1.8,��
2020/02/19,12:50,0.690,0.985,0.649,1.211,0.863,0.398,0.693,0.660,�쓌,1.5,��
2020/02/19,13:00,0.692,0.984,0.649,1.211,0.862,0.398,0.691,0.660,���쓌,2.5,��
2020/02/19,13:10,0.692,0.985,0.649,1.211,0.863,0.398,0.693,0.659,��,1.4,��
2020/02/19,13:20,0.690,0.987,0.647,1.212,0.862,0.399,0.693,0.660,��,1.7,��
2020/02/19,13:30,0.689,0.983,0.649,1.212,0.864,0.397,0.693,0.662,�k�k��,3.4,��
2020/02/19,13:40,0.690,0.986,0.648,1.213,0.863,0.398,0.692,0.659,�k�k��,3.6,�L
2020/02/19,13:50,0.690,0.981,0.650,1.211,0.863,0.397,0.693,0.660,�k�k��,3.8,�L
2020/02/19,14:00,0.689,0.982,0.649,1.211,0.863,0.396,0.692,0.661,�k,4.0,�L
2020/02/19,14:10,0.690,0.982,0.649,1.211,0.863,0.398,0.694,0.659,�k�k��,4.0,��
2020/02/19,14:20,0.690,0.983,0.650,1.214,0.864,0.397,0.693,0.660,�k�k��,3.0,��
2020/02/19,14:30,0.688,0.983,0.647,1.212,0.863,0.398,0.694,0.661,�k�k��,3.5,��
2020/02/19,14:40,0.690,0.983,0.649,1.213,0.863,0.399,0.693,0.662,�k�k��,4.0,�L
2020/02/19,14:50,0.690,0.984,0.648,1.212,0.863,0.397,0.692,0.662,�k�k��,3.8,�L
2020/02/19,15:00,0.690,0.985,0.648,1.212,0.863,0.398,0.696,0.661,�k�k��,3.1,�L
2020/02/19,15:10,0.689,0.986,0.647,1.213,0.864,0.397,0.693,0.659,�k�k��,3.1,��
2020/02/19,15:20,0.689,0.984,0.650,1.210,0.863,0.398,0.693,0.661,�k�k��,2.5,��
2020/02/19,15:30,0.689,0.985,0.651,1.212,0.863,0.397,0.694,0.661,�k�k��,2.2,��
2020/02/19,15:40,0.690,0.986,0.648,1.213,0.864,0.398,0.693,0.660,�k,2.0,��
2020/02/19,15:50,0.691,0.986,0.649,1.212,0.864,0.398,0.693,0.660,�k�k��,1.2,��
2020/02/19,16:00,0.690,0.986,0.650,1.212,0.864,0.397,0.694,0.661,���k��,2.3,��
2020/02/19,16:10,0.690,0.985,0.649,1.213,0.865,0.398,0.693,0.661,��,3.1,��
2020/02/19,16:20,0.689,0.989,0.648,1.214,0.865,0.397,0.694,0.660,�k�k��,3.7,��
2020/02/19,16:30,0.689,0.986,0.649,1.211,0.864,0.397,0.695,0.662,�k�k��,3.8,��
2020/02/19,16:40,0.689,0.988,0.649,1.213,0.865,0.397,0.693,0.659,���k��,3.3,��
2020/02/19,16:50,0.691,0.988,0.649,1.211,0.865,0.397,0.693,0.661,���k��,5.3,��
2020/02/19,17:00,0.689,0.989,0.650,1.212,0.862,0.396,0.693,0.660,��,6.6,��
2020/02/19,17:10,0.689,0.985,0.648,1.210,0.863,0.398,0.695,0.659,���k��,4.7,��
2020/02/19,17:20,0.688,0.986,0.650,1.211,0.864,0.398,0.693,0.660,���k��,4.6,��
2020/02/19,17:30,0.688,0.985,0.649,1.213,0.864,0.397,0.694,0.659,���k��,6.3,��
2020/02/19,17:40,0.687,0.987,0.649,1.211,0.864,0.397,0.693,0.659,��,6.8,��
2020/02/19,17:50,0.689,0.987,0.650,1.216,0.863,0.397,0.694,0.660,��,6.6,��
2020/02/19,18:00,0.689,0.988,0.649,1.212,0.863,0.396,0.695,0.661,��,6.1,��
2020/02/19,18:10,0.687,0.989,0.650,1.212,0.862,0.398,0.694,0.660,��,4.9,��
2020/02/19,18:20,0.687,0.985,0.650,1.213,0.864,0.397,0.695,0.661,��,4.4,��
2020/02/19,18:30,0.688,0.986,0.650,1.212,0.862,0.399,0.694,0.660,��,4.8,��
2020/02/19,18:40,0.688,0.986,0.650,1.214,0.864,0.398,0.695,0.661,��,5.5,��
2020/02/19,18:50,0.689,0.986,0.651,1.212,0.865,0.398,0.694,0.660,��,5.7,��
2020/02/19,19:00,0.688,0.984,0.649,1.212,0.863,0.398,0.695,0.660,��,4.8,��
2020/02/19,19:10,0.689,0.985,0.648,1.212,0.863,0.396,0.694,0.662,��,4.7,��
2020/02/19,19:20,0.688,0.987,0.649,1.212,0.862,0.397,0.694,0.660,��,5.2,��
2020/02/19,19:30,0.689,0.986,0.649,1.213,0.863,0.397,0.694,0.660,��,5.0,��
2020/02/19,19:40,0.687,0.987,0.649,1.212,0.865,0.399,0.694,0.660,��,4.5,��
2020/02/19,19:50,0.688,0.988,0.650,1.211,0.864,0.397,0.694,0.660,��,5.5,��
2020/02/19,20:00,0.688,0.987,0.649,1.213,0.864,0.396,0.695,0.659,��,5.6,��
2020/02/19,20:10,0.687,0.986,0.649,1.211,0.864,0.396,0.696,0.660,��,4.6,��
2020/02/19,20:20,0.688,0.984,0.648,1.215,0.863,0.398,0.694,0.661,���k��,5.4,��
2020/02/19,20:30,0.686,0.987,0.649,1.212,0.861,0.398,0.693,0.659,���k��,5.2,��
2020/02/19,20:40,0.688,0.986,0.650,1.214,0.863,0.397,0.695,0.659,���k��,6.9,��
2020/02/19,20:50,0.688,0.987,0.649,1.213,0.863,0.397,0.693,0.661,���k��,6.5,��
2020/02/19,21:00,0.687,0.987,0.648,1.213,0.865,0.397,0.695,0.661,���k��,7.2,��
2020/02/19,21:10,0.686,0.988,0.647,1.214,0.863,0.398,0.693,0.660,���k��,7.0,��
2020/02/19,21:20,0.688,0.987,0.649,1.212,0.861,0.397,0.693,0.661,���k��,6.7,��
2020/02/19,21:30,0.686,0.987,0.649,1.214,0.864,0.396,0.693,0.658,���k��,5.0,��
2020/02/19,21:40,0.688,0.987,0.649,1.214,0.863,0.397,0.694,0.661,���k��,5.6,��
2020/02/19,21:50,0.687,0.985,0.649,1.211,0.863,0.396,0.694,0.659,��,5.9,��
2020/02/19,22:00,0.687,0.985,0.649,1.212,0.864,0.397,0.694,0.661,��,6.8,��
2020/02/19,22:10,0.687,0.984,0.649,1.214,0.863,0.398,0.694,0.658,��,8.1,��
2020/02/19,22:20,0.686,0.986,0.649,1.215,0.863,0.396,0.694,0.660,��,7.8,��
2020/02/19,22:30,0.687,0.983,0.650,1.213,0.865,0.396,0.692,0.661,���k��,5.4,��
2020/02/19,22:40,0.687,0.986,0.649,1.213,0.865,0.397,0.693,0.658,��,3.6,��
2020/02/19,22:50,0.686,0.988,0.647,1.213,0.863,0.397,0.693,0.659,��,4.6,��
2020/02/19,23:00,0.687,0.985,0.649,1.216,0.863,0.397,0.694,0.660,��,4.6,��
2020/02/19,23:10,0.688,0.985,0.649,1.213,0.864,0.396,0.694,0.659,��,5.2,��
2020/02/19,23:20,0.686,0.987,0.650,1.211,0.865,0.398,0.693,0.659,��,5.1,��
2020/02/19,23:30,0.686,0.985,0.649,1.213,0.865,0.397,0.693,0.659,��,5.7,��
2020/02/19,23:40,0.687,0.986,0.649,1.210,0.861,0.397,0.693,0.659,���쐼,5.8,��
2020/02/19,23:50,0.686,0.987,0.648,1.214,0.865,0.397,0.692,0.659,��,5.4,��
